User: anonymous   Login
Location: Unspecified
(0.0000°N, 0.0000°E)
Time: 19:38:22
(UTC+00:00)
Language:

MUOS 5 - Orbit

View from above orbital plane
View from above orbital plane
View from above satellite
View from above satellite

Ground track
Ground track

The orbit data is extracted from the following two-line orbital elements,

1 41622U 16041A   18143.49434931 0.00000000  00000-0  00000-0 0    04
2 41622   8.7426 314.8384 0207480 200.6964 158.4628  1.00270000    07
Epoch (UTC): 23 May 2018 11:51:51
Eccentricity: 0.0207480
inclination: 8.7426°
perigee height: 34912 km
apogee height: 36661 km
right ascension of ascending node: 314.8384°
argument of perigee: 200.6964°
revolutions per day: 1.00270000
mean anomaly at epoch: 158.4628°
orbit number at epoch: 0

The dashed part of the orbit path shows where the satellite is in the earth's shadow,  

DLR